Probability
0 0 1 2 1 2 3 4 4 4 4 4 4 4 5 5 4 2 2 6 9 8 5 4 3 3 3 3 3 4 5 5 4 4 4 2 1 0 0 0 0 0 1
0 0 1 2 3 4 5 6 5 4 4 4 4 3 4 5 4 3 3 6 8 9 7 4 3 3 3 3 3 4 6 6 6 6 5 3 2 1 1 1 1 1 1
0 0 1 3 4 5 6 6 5 4 3 4 3 3 4 5 5 4 4 5 6 7 7 6 5 4 4 4 4 5 7 8 9 9 8 6 4 3 2 2 2 1 1
1 1 2 2 2 3 4 4 4 4 4 4 4 4 5 7 7 6 5 4 5 5 6 7 7 6 6 6 6 6 6 7 9 10 9 8 6 4 3 3 3 3 2
2 2 2 2 1 1 2 3 4 5 5 5 5 5 6 7 8 8 6 5 5 6 6 7 8 9 9 9 8 7 6 5 7 9 9 9 7 4 3 3 3 3 3
2 2 2 2 1 1 2 3 4 5 5 5 4 5 7 8 8 8 7 6 6 7 7 7 8 9 10 10 8 6 4 3 4 6 8 8 6 4 2 2 3 3 3
2 1 1 1 1 1 2 4 5 5 4 4 4 5 7 8 8 8 7 7 8 8 9 9 10 10 9 8 7 5 4 2 2 3 5 6 6 4 2 1 2 2 2
3 3 2 2 2 2 4 5 6 5 3 3 4 5 7 7 7 7 8 10 10 11 10 12 14 15 11 7 6 5 5 3 1 1 2 4 4 3 1 1 1 1 1
7 7 7 6 5 4 4 6 6 5 4 4 4 4 5 6 6 7 9 13 14 13 12 13 18 20 17 12 8 6 5 4 1 1 2 4 3 1 0 0 0 0 0
13 11 10 10 9 6 5 6 7 7 6 5 5 5 5 6 8 8 9 12 14 13 12 13 18 23 24 20 14 9 7 3 1 1 3 4 4 2 1 1 0 0 0
16 15 14 13 12 9 7 7 8 8 7 6 5 5 5 7 8 7 8 10 12 13 13 15 19 25 27 25 19 14 10 5 1 1 2 2 3 3 2 2 1 0 0
18 18 16 14 13 13 11 10 9 9 8 7 6 5 5 5 6 6 7 9 11 12 14 16 19 23 25 24 20 16 12 5 1 0 0 0 1 2 3 3 2 1 0
18 19 18 16 15 14 13 12 11 11 11 11 10 8 7 6 6 6 8 10 11 12 13 15 17 17 19 20 18 15 11 4 0 0 0 0 0 1 3 3 2 1 0
16 18 19 18 17 15 14 12 12 12 13 14 14 13 12 11 10 10 10 11 11 11 12 12 13 13 15 17 15 13 10 5 1 0 0 0 0 1 3 3 3 1 0
15 16 17 18 18 16 14 13 12 12 15 17 17 16 15 14 14 13 13 13 13 12 11 11 13 14 15 14 12 13 13 8 3 1 0 0 0 0 1 2 3 2 1
14 14 16 18 18 17 16 16 15 15 18 20 19 17 17 16 15 15 14 14 14 14 14 14 15 16 16 13 11 13 14 10 5 2 1 0 0 0 0 1 2 2 2
16 16 17 18 19 19 20 22 19 16 17 19 19 19 18 16 16 17 17 16 16 17 19 18 18 19 19 17 14 14 13 11 8 5 2 1 0 0 0 0 1 1 2
19 19 21 22 22 22 24 25 22 17 17 20 22 22 22 20 20 21 20 18 18 20 22 21 21 22 22 21 19 16 14 14 12 6 3 1 0 0 0 0 0 0 1
25 26 27 27 25 24 24 26 25 21 20 23 25 26 25 25 25 26 24 22 21 22 24 25 23 24 25 24 21 18 17 18 15 9 4 2 1 0 0 0 0 0 0
35 34 33 31 28 24 23 24 26 26 25 27 28 28 27 25 26 26 26 25 24 23 25 27 25 24 26 26 23 20 19 20 19 15 10 6 3 1 0 0 0 0 0
39 38 36 33 29 24 21 22 25 28 30 31 32 30 28 25 23 22 23 23 24 24 24 25 24 24 26 27 24 21 20 20 21 19 15 10 5 2 1 0 0 0 0
39 39 38 34 29 23 18 16 20 26 30 33 34 33 30 26 23 21 19 19 20 21 23 23 23 24 25 25 24 21 20 19 20 20 18 14 10 8 4 2 0 0 0
39 39 37 34 30 25 16 10 11 19 26 31 34 34 32 29 27 25 22 19 19 18 18 21 23 25 26 24 24 23 21 20 21 22 20 17 16 13 9 4 1 0 0
41 39 36 34 32 27 19 9 7 14 24 28 32 34 35 33 30 28 27 25 24 20 16 15 19 22 22 21 22 23 22 20 20 21 22 21 20 17 13 8 3 0 0
42 40 36 35 34 30 22 11 8 16 25 28 30 32 34 34 30 27 28 29 29 25 18 13 13 13 12 12 14 19 20 18 16 17 21 22 22 19 15 12 7 3 1
44 41 37 35 35 32 23 10 8 19 27 29 29 30 30 30 28 26 27 29 29 27 21 15 10 7 6 6 7 13 17 16 14 14 17 20 20 19 17 15 11 6 2
Wind_Speed
2 2 1 1 2 1 2 1 1 1 1 1 1 2 2 3 4 5 4 6 6 5 4 4 4 4 4 5 5 5 4 4 4 4 5 6 6 7 7 7 7 8 8
2 2 2 1 1 1 1 1 1 1 1 1 1 1 2 2 3 4 5 4 6 6 5 4 4 4 4 4 4 4 4 4 4 4 5 5 6 6 7 7 8 7 7
2 1 1 1 0 0 1 1 1 1 1 1 1 2 1 1 2 3 4 4 4 5 5 5 5 5 5 5 4 4 4 4 4 4 4 4 5 5 6 7 7 7 7
2 1 1 1 0 0 1 1 0 1 1 1 1 1 1 2 2 2 2 4 4 4 5 6 5 5 5 5 4 4 4 4 3 3 4 4 4 5 6 7 7 7 8
1 1 1 1 1 1 1 1 2 0 0 1 1 2 1 2 2 2 2 2 3 4 4 5 6 5 5 5 4 4 4 4 4 4 3 3 3 4 5 6 7 7 8
1 0 1 1 0 1 1 1 1 0 0 0 0 1 1 1 2 2 1 2 2 4 4 5 4 4 6 5 4 4 4 3 3 3 3 3 3 3 3 4 5 6 7
1 0 1 1 1 1 1 1 1 1 1 0 1 0 1 2 2 2 1 1 2 2 3 4 4 3 3 5 4 4 4 3 3 3 3 2 2 2 2 2 4 6 7
1 1 1 0 1 1 1 0 0 0 1 0 0 0 1 0 1 2 2 2 2 1 2 3 3 3 3 3 4 5 4 4 3 3 3 2 2 1 2 2 3 4 5
1 1 1 0 0 1 1 1 0 0 0 1 0 0 0 0 1 0 0 1 1 1 1 2 3 3 3 4 4 4 4 3 3 3 3 2 2 2 2 3 3 4 4
2 1 1 0 1 1 1 1 1 1 1 1 1 1 1 1 1 1 1 1 2 1 1 1 2 3 3 4 4 6 6 5 4 4 3 3 2 2 3 3 3 4 4
2 2 1 0 0 0 0 1 1 1 1 1 2 1 0 1 2 1 1 1 1 1 1 1 1 2 3 4 4 5 7 6 5 4 4 3 3 3 3 4 4 4 5
2 3 2 1 1 0 0 0 0 1 1 2 2 2 1 1 1 1 1 1 1 1 2 1 1 1 2 4 4 8 8 7 6 5 4 4 3 3 3 4 4 5 5
2 3 3 2 1 1 1 1 1 1 1 1 1 2 2 1 1 1 1 1 1 1 1 1 1 1 1 3 4 8 7 7 6 5 5 4 3 3 3 3 4 4 4
2 4 3 3 2 2 2 1 1 2 1 1 2 2 2 2 1 1 1 1 1 1 1 1 0 2 1 2 3 6 5 7 6 6 5 4 3 3 3 3 3 3 3
2 4 3 3 2 2 1 1 1 2 1 1 2 2 2 2 1 1 1 1 1 1 2 1 1 1 2 2 4 3 4 7 7 6 6 5 5 4 3 3 3 3 3
1 2 3 3 3 3 3 2 2 2 1 1 1 1 1 2 2 2 1 1 1 1 2 1 1 1 1 2 3 3 3 8 9 9 8 7 7 6 5 4 4 4 4
2 2 2 2 2 2 2 2 2 2 1 1 2 1 1 2 2 2 2 2 2 1 2 1 0 1 1 1 2 3 3 4 5 11 11 10 9 8 7 6 6 5 5
3 3 3 2 3 2 2 2 3 2 2 2 2 2 2 1 2 2 2 3 2 2 2 2 2 1 2 2 3 3 3 4 4 10 13 12 11 11 9 8 8 7 6
3 3 3 3 3 2 2 3 3 2 2 2 2 2 2 2 2 2 3 3 3 3 2 2 3 1 2 2 2 3 4 2 4 6 11 11 12 12 11 10 9 8 8
3 3 3 3 3 3 2 2 2 3 2 2 2 2 2 2 2 2 3 2 3 3 2 2 2 2 1 2 1 2 3 3 4 4 4 6 10 12 12 11 11 10 9
4 4 4 4 4 3 3 2 3 3 3 3 2 2 2 2 2 2 3 2 3 3 3 2 2 2 2 1 1 2 3 3 3 3 2 3 5 5 7 10 12 12 11
3 3 4 3 3 3 2 1 2 3 3 3 3 3 3 4 4 4 4 4 3 3 3 3 3 3 2 2 2 2 3 3 3 2 2 3 3 4 5 5 9 12 12
4 4 3 3 3 2 2 2 3 4 4 3 4 4 5 3 3 3 4 5 5 6 5 4 4 4 3 3 2 3 3 4 4 3 3 4 3 3 3 4 9 11 11
4 4 4 5 4 4 5 4 4 5 5 5 4 4 4 3 3 2 4 4 4 5 6 6 5 6 5 3 3 4 5 5 5 4 3 4 4 3 3 3 8 11 11
4 4 4 4 4 4 4 4 4 4 5 6 6 5 4 3 3 2 3 4 4 4 7 7 7 7 8 7 5 3 4 4 5 4 2 3 4 3 3 3 5 9 10
4 4 4 4 4 4 5 6 5 4 5 4 4 4 4 4 4 4 4 4 5 5 5 5 5 6 6 6 7 5 4 5 5 4 3 3 4 3 3 2 2 3 5
Wind_Direction
143 136 157 174 187 166 161 168 180 141 97 70 70 70 57 80 100 110 118 134 135 136 145 156 165 174 178 181 186 190 195 198 198 198 201 205 208 211 211 209 207 206 207
131 144 157 174 170 171 156 166 140 115 110 89 60 72 81 89 104 121 133 137 137 140 147 154 162 170 175 176 183 188 187 184 185 188 200 205 208 215 215 212 209 208 205
125 134 143 153 175 162 125 100 79 114 142 135 129 108 89 94 113 128 139 150 150 149 152 154 155 164 176 177 176 181 180 180 184 188 194 203 210 213 217 217 214 211 206
138 145 136 132 92 63 112 127 143 125 128 148 142 140 139 138 141 152 154 156 157 152 159 164 164 170 177 179 186 187 182 180 183 185 192 199 208 216 219 219 220 215 208
115 135 105 87 119 102 113 167 102 131 179 132 156 174 172 164 160 162 162 149 152 148 153 165 171 175 178 184 188 194 192 187 184 185 190 195 205 214 220 219 220 216 207
150 161 120 110 124 105 88 86 105 157 228 251 310 96 159 158 147 154 176 155 152 157 158 154 167 180 181 178 180 184 184 180 177 176 186 199 206 210 210 214 214 210 204
122 35 70 106 81 106 114 102 107 205 231 125 63 5 240 193 163 164 167 149 151 150 144 154 166 166 171 177 183 182 182 188 182 180 180 192 198 201 198 205 210 207 201
163 174 102 148 113 105 104 111 81 15 308 130 170 177 319 357 328 168 153 171 155 154 162 166 163 160 163 151 165 174 183 190 193 195 194 199 208 204 200 207 195 198 201
150 359 127 290 79 146 134 213 255 185 244 293 336 310 344 6 328 332 190 142 132 164 203 190 169 164 158 144 148 170 179 186 201 204 202 199 205 210 206 209 208 203 198
176 160 126 32 359 30 129 224 130 296 258 252 242 240 228 127 170 289 289 180 187 204 222 227 179 159 149 141 144 155 172 184 199 209 208 211 214 216 214 213 217 215 205
185 157 145 139 312 312 51 35 41 323 311 315 308 290 275 192 200 195 253 271 237 218 207 222 204 172 161 155 150 154 170 180 193 207 213 218 224 227 224 226 226 223 219
178 174 162 170 229 244 70 51 297 286 302 322 323 326 324 310 277 249 245 244 241 236 194 190 211 175 173 156 149 148 165 178 188 197 208 218 223 232 238 239 236 229 224
173 167 174 171 211 200 202 227 244 281 285 300 300 302 311 305 300 296 269 268 274 260 233 208 185 153 222 121 131 152 162 170 182 191 198 207 216 225 236 241 235 224 218
175 156 166 178 201 219 224 204 238 239 234 267 283 298 298 304 309 307 293 299 304 293 259 269 219 136 103 98 133 159 160 167 174 181 185 191 198 207 220 227 223 221 218
173 151 164 177 191 216 237 228 242 263 262 263 285 292 285 298 305 300 284 261 272 281 275 230 267 117 114 109 149 182 164 180 186 190 189 193 198 206 208 214 219 218 220
153 149 167 181 195 199 205 224 238 242 216 226 240 289 302 308 317 308 312 294 281 276 285 235 219 159 130 161 180 211 188 180 194 194 196 198 203 207 207 210 214 219 222
190 187 192 199 208 206 203 216 235 231 239 251 256 248 247 269 298 309 305 292 284 285 277 279 224 167 173 198 187 227 205 186 193 202 205 205 207 208 209 214 218 221 227
193 196 198 204 213 206 206 218 231 226 232 236 251 267 267 264 278 292 304 303 299 280 256 275 268 220 213 209 208 232 241 220 202 202 206 209 209 210 212 216 218 221 225
191 199 204 204 208 218 221 225 224 229 239 243 239 247 258 262 276 283 286 295 299 297 272 266 268 246 233 234 227 249 264 258 247 213 203 211 215 215 214 216 217 218 221
197 200 207 211 212 216 220 231 230 232 241 254 261 257 269 265 274 286 278 286 293 299 287 273 268 269 244 239 228 252 266 251 255 246 209 208 213 216 219 220 220 219 219
206 208 208 212 218 218 227 229 240 237 234 243 250 246 248 238 242 262 289 298 299 300 298 290 283 283 278 275 259 263 275 269 258 248 221 220 206 211 216 222 225 224 220
207 216 218 213 219 226 217 228 251 252 245 237 241 247 243 224 225 231 255 269 265 266 280 288 286 281 281 274 268 276 286 290 285 263 257 251 216 213 213 211 213 214 219
202 208 216 208 202 208 222 248 257 252 249 245 244 245 256 244 213 227 238 250 254 254 247 261 276 284 283 279 278 280 278 277 272 271 270 267 251 239 224 220 202 203 210
199 208 212 210 207 218 218 226 248 245 248 246 245 241 239 238 256 249 253 252 249 252 245 241 253 266 271 267 255 261 271 275 271 267 242 260 263 252 248 218 202 200 206
208 212 207 212 214 226 223 224 234 248 247 246 245 244 239 225 229 236 256 268 270 266 257 254 249 254 260 258 252 273 276 279 278 274 245 248 260 260 240 224 217 205 210
213 220 218 215 215 212 211 213 219 249 258 258 249 238 228 222 215 212 236 258 268 275 283 278 267 262 259 255 242 237 255 266 274 275 257 256 267 271 271 237 219 204 212